[[{"header":{"parameterUnit":"m.s-1","parameterCategory":1,"la1":30.2991,"la2":30.254,"lo1":-89.0895,"lo2":-89.0444,"dy":0.0017,"dx":0.0017,"nx":28,"ny":28,"refTime":"2024-06-15T03:00:00:Z","depth":0,"parameterNumber":2,"parameterNumberName":"U-component_of_WINDS"},"data":[0,0,0,0,0,0,0,0,0,0,0,0,0,0,0,0,0,0,0,0,0,0,0,0,0,0,0,0,0,0,0,0,0,0,0,0,0,0,0,0,0,0,0,0,0,0,0,0,0,0,0,0,0,0,0,0,0,0,-3.0061,-3.0061,0,-3.0078,-3.0078,-3.0078,-3.004,-3.0039,-3.0038,-3.0037,-3.0055,-3.0056,-3.0058,0,0,0,0,0,0,0,0,0,0,0,0,0,-2.9994,-2.9996,-3.0061,-3.0061,-3.0061,-3.0078,-3.0078,-3.0078,-3.004,-3.0039,-3.0037,-3.0036,-3.0054,-3.0056,-3.0058,0,0,0,0,0,0,0,0,0,0,0,0,0,-3.0018,-2.9996,-3.0061,-3.0044,-3.0043,-3.0078,-3.0078,-3.0079,-3.0041,-3.0039,-3.0037,-3.0035,-3.0053,-3.0056,-3.0058,-3.011,0,0,-3.0066,-3.0067,0,0,0,0,0,0,0,0,-3.0017,-3.0021,-3.0046,-3.0045,-3.0044,-3.0055,-3.0061,-3.0089,-3.0041,-3.0042,-3.0037,-3.0034,-3.0056,-3.0058,-3.0066,-3.0111,-3.0112,-3.0066,-3.0067,-3.0068,-3.0069,0,0,0,0,0,0,0,-3.0015,-3.002,-3.0067,-3.0047,-3.0045,-3.0036,-3.0037,-3.0066,-3.0059,-3.0041,-3.0039,-3.0041,-3.0055,-3.0063,-3.0066,-3.0112,-3.0066,-3.0068,-3.0069,-3.007,-3.02,-3.0202,0,0,0,0,0,0,-3.0016,-3.0019,-3.0067,-3.0068,-3.0026,-3.0038,-3.004,-3.0053,-3.0059,-3.0058,-3.0043,-3.0039,-3.006,-3.0063,-3.0066,-3.0126,-3.0068,-3.0071,-3.0072,-3.0198,-3.02,-3.0203,0,0,0,0,0,0,-3.0015,-3.0021,-3.0066,-3.0043,-3.0048,-3.0042,-3.0057,-3.0055,-3.0063,-3.006,-3.0058,-3.0052,-3.0059,-3.0063,-3.0099,-3.0126,-3.0072,-3.0074,-3.0196,-3.0199,-3.0202,-3.0248,0,0,0,0,0,0,-3.0013,-3.002,-3.004,-3.0043,-3.0049,-3.0099,-3.0059,-3.0056,-3.0067,-3.0063,-3.0068,-3.0067,-3.0058,-3.0096,-3.0102,-3.0129,-3.0076,-3.0193,-3.0197,-3.0201,-3.0244,-3.0252,-3.0259,0,0,0,0,0,-3.0011,-3.0053,-3.0041,-3.0047,-3.0074,-3.0101,-3.0104,-3.0092,-3.0069,-3.0089,-3.0087,-3.0067,-3.0123,-3.01,-3.0106,-3.0134,-3.0191,-3.0196,-3.02,-3.024,-3.025,-3.0259,0,0,0,0,0,0,-3.0052,-3.0053,-3.004,-3.0084,-3.0093,-3.0094,-3.0118,-3.0103,-3.0118,-3.0113,-3.0098,-3.0099,-3.0138,-3.014,-3.0115,-3.0185,-3.0153,-3.0159,-3.0182,-3.0191,-3.0199,-3.0196,-3.0078,0,0,0,0,0,-3.0067,-3.0089,-3.0088,-3.0127,-3.0132,-3.0125,-3.0136,-3.0126,-3.0134,-3.0137,-3.0138,-3.0147,-3.0166,-3.0179,-3.0197,-3.0244,-3.0244,-3.0267,-3.0275,-3.0281,-3.0286,-3.031,-3.032,-3.0217,-3.0217,-3.0217,0,0,-3.0097,-3.01,-3.0114,-3.0135,-3.0141,-3.0163,-3.0128,-3.0154,-3.017,-3.0141,-3.0175,-3.0176,-3.0185,-3.0227,-3.0246,-3.023,-3.0314,-3.0287,-3.0292,-3.0293,-3.0316,-3.0325,-3.0334,-3.022,-3.022,-3.0219,0,0,-3.0162,-3.0167,-3.02,-3.0206,-3.0214,-3.0209,-3.0217,-3.0221,-3.0221,-3.0255,-3.0233,-3.0253,-3.0287,-3.0293,-3.0301,-3.037,-3.0352,-3.0377,-3.0415,-3.0439,-3.0447,-3.0454,-3.0478,-3.0486,-3.0382,-3.0382,-3.0382,0,-3.0198,-3.0231,-3.0218,-3.0245,-3.0255,-3.023,-3.0263,-3.0269,-3.0284,-3.0291,-3.0273,-3.0315,-3.0319,-3.0361,-3.0378,-3.0386,-3.0394,-3.0375,-3.0447,-3.0454,-3.0461,-3.0482,-3.0491,-3.0385,-3.0384,-3.0384,-3.0384,0,-3.0274,-3.0298,-3.0323,-3.0337,-3.035,-3.038,-3.0371,-3.0385,-3.0375,-3.0371,-3.0406,-3.0411,-3.0428,-3.0438,-3.0428,-3.0479,-3.0469,-3.045,-3.0418,-3.0473,-3.0494,-3.0502,-3.0388,-3.0387,-3.0387,-3.0386,0,0,-3.0365,-3.0372,-3.0381,-3.0387,-3.0395,-3.0412,-3.0441,-3.0459,-3.0471,-3.0482,-3.0505,-3.0534,-3.0516,-3.0525,-3.0516,-3.0537,-3.059,-3.0515,-3.0515,-3.0527,-3.0645,-3.0658,-3.0668,-3.0579,-3.058,-3.0582,-3.0644,0,-3.0429,-3.0478,-3.0467,-3.0515,-3.0536,-3.0513,-3.0538,-3.0546,-3.0544,-3.0561,-3.0559,-3.058,-3.0555,-3.056,-3.0581,-3.0579,-3.0613,-3.0575,-3.0599,-3.06,-3.0596,-3.0679,-3.0693,-3.0752,-3.0652,-3.0653,-3.0654,0,-3.0509,-3.0523,-3.0573,-3.0576,-3.0585,-3.0608,-3.0622,-3.064,-3.0648,-3.0645,-3.0655,-3.0642,-3.067,-3.0639,-3.0677,-3.0651,-3.0661,-3.0662,-3.0664,-3.0664,-3.0629,-3.068,-3.077,-3.0778,-3.0667,-3.0666,-3.0665,0,-3.0569,-3.06,-3.0633,-3.0639,-3.0645,-3.0661,-3.0664,-3.067,-3.0681,-3.0694,-3.0701,-3.0718,-3.0726,-3.0739,-3.0731,-3.0709,-3.077,-3.0739,-3.0768,-3.0768,-3.078,-3.0779,-3.0871,-3.0789,-3.0789,-3.0789,-3.0789,0,-3.064,-3.0671,-3.066,-3.068,-3.0714,-3.0702,-3.0736,-3.0736,-3.0742,-3.0762,-3.0744,-3.0764,-3.0752,-3.077,-3.0764,-3.0795,-3.08,-3.0798,-3.0795,-3.0799,-3.0799,-3.0803,-3.0798,-3.0791,-3.0791,-3.079,-3.079,0,-3.0711,-3.0705,-3.074,-3.0742,-3.0744,-3.0769,-3.0771,-3.079,-3.0787,-3.0812,-3.0818,-3.0813,-3.0834,-3.0827,-3.0849,-3.0845,-3.0885,-3.0878,-3.0882,-3.0879,-3.0908,-3.0905,-3.1005,-3.1017,-3.0929,-3.093,-3.0931,0,-3.0756,-3.0779,-3.0784,-3.0796,-3.08,-3.082,-3.0831,-3.082,-3.0833,-3.0843,-3.0861,-3.088,-3.0894,-3.0928,-3.0927,-3.0944,-3.0936,-3.097,-3.0939,-3.0941,-3.0935,-3.0933,-3.0934,-3.0976,-3.0977,-3.0978,-3.0979,0,-3.0835,-3.0831,-3.0847,-3.0863,-3.0876,-3.0888,-3.0898,-3.0909,-3.0899,-3.0913,-3.0934,-3.0945,-3.0968,-3.0987,-3.1002,-3.1005,-3.099,-3.0989,-3.0996,-3.0998,-3.0999,-3.0997,-3.0897,-3.0986,-3.0985,-3.0985,-3.0984,-3.0984,-3.0894,-3.0913,-3.0919,-3.0938,-3.0944,-3.0954,-3.0972,-3.0971,-3.0988,-3.1005,-3.0998,-3.1022,-3.1029,-3.1048,-3.1053,-3.1071,-3.1058,-3.1069,-3.1072,-3.1074,-3.1077,-3.0998,-3.1075,-3.1074,-3.1074,-3.1074,-3.1074,0,-3.0971,-3.0974,-3.0991,-3.1005,-3.102,-3.1005,-3.1016,-3.1029,-3.105,-3.1058,-3.1072,-3.1096,-3.1114,-3.1114,-3.1131,-3.1146,-3.1139,-3.1151,-3.1148,-3.1149,-3.1089,-3.108,-3.1155,-3.1155,-3.1155,-3.1155,-3.1155,-3.1155,-3.1012,-3.1044,-3.104,-3.1075,-3.1077,-3.11,-3.1107,-3.1116,-3.1122,-3.1149,-3.1164,-3.1164,-3.1169,-3.1186,-3.1202,-3.1202,-3.1208,-3.1222,-3.1219,-3.1162,-3.1154,-3.1146,-3.1137,-3.1224,-3.1224,-3.1277,-3.1278,-3.1278]},{"header":{"parameterUnit":"m.s-1","parameterCategory":1,"la1":30.2991,"la2":30.254,"lo1":-89.0895,"lo2":-89.0444,"dy":0.0017,"dx":0.0017,"nx":28,"ny":28,"refTime":"2024-06-15T03:00:00:Z","depth":0,"parameterNumber":3,"parameterNumberName":"V-component_of_WINDS"},"data":[0,0,0,0,0,0,0,0,0,0,0,0,0,0,0,0,0,0,0,0,0,0,0,0,0,0,0,0,0,0,0,0,0,0,0,0,0,0,0,0,0,0,0,0,0,0,0,0,0,0,0,0,0,0,0,0,0,0,3.5859,3.5859,0,3.5887,3.5887,3.5887,3.5838,3.5837,3.5835,3.5834,3.586,3.5862,3.5864,0,0,0,0,0,0,0,0,0,0,0,0,0,3.5764,3.5766,3.5859,3.5859,3.586,3.5886,3.5887,3.5887,3.5839,3.5837,3.5835,3.5833,3.5859,3.5862,3.5864,0,0,0,0,0,0,0,0,0,0,0,0,0,3.58,3.5767,3.5859,3.5839,3.5837,3.5886,3.5887,3.5887,3.5839,3.5837,3.5834,3.5832,3.5858,3.5861,3.5865,3.5934,0,0,3.5875,3.5876,0,0,0,0,0,0,0,0,3.5798,3.5803,3.5841,3.584,3.5839,3.5857,3.5863,3.5903,3.584,3.5838,3.5834,3.5831,3.5861,3.5863,3.5874,3.5935,3.5936,3.5875,3.5877,3.5879,3.5879,0,0,0,0,0,0,0,3.5795,3.5802,3.587,3.5842,3.584,3.5828,3.5831,3.587,3.5863,3.5838,3.5835,3.5839,3.5859,3.5871,3.5874,3.5937,3.5875,3.5878,3.588,3.5881,3.6059,3.6062,0,0,0,0,0,0,3.5796,3.58,3.5869,3.5871,3.5812,3.5832,3.5835,3.5853,3.5862,3.5861,3.5841,3.5836,3.5866,3.587,3.5875,3.5959,3.5878,3.5882,3.5884,3.6057,3.606,3.6063,0,0,0,0,0,0,3.5794,3.5802,3.5868,3.5834,3.5842,3.5836,3.5858,3.5855,3.5867,3.5864,3.5862,3.5854,3.5865,3.587,3.5921,3.5959,3.5883,3.5886,3.6053,3.6058,3.6061,3.6125,0,0,0,0,0,0,3.5791,3.5802,3.5828,3.5835,3.5844,3.5913,3.586,3.5857,3.5873,3.5867,3.5876,3.5875,3.5863,3.5916,3.5924,3.5962,3.5889,3.605,3.6055,3.606,3.612,3.6131,3.6141,0,0,0,0,0,3.5788,3.5844,3.583,3.5838,3.5877,3.5915,3.592,3.5905,3.5876,3.5902,3.5901,3.5875,3.5953,3.5921,3.593,3.597,3.6047,3.6054,3.606,3.6115,3.6129,3.6141,0,0,0,0,0,0,3.5839,3.5844,3.5828,3.5888,3.5902,3.5907,3.594,3.592,3.5942,3.5936,3.5916,3.5919,3.5973,3.5976,3.5941,3.6039,3.5995,3.6004,3.6035,3.6048,3.6058,3.6056,3.5891,0,0,0,0,0,3.5858,3.5889,3.5892,3.5944,3.5952,3.5945,3.5961,3.595,3.5962,3.5968,3.597,3.5983,3.6011,3.6029,3.6055,3.612,3.6122,3.6152,3.6162,3.6171,3.6178,3.6216,3.6229,3.6083,3.6083,3.6083,0,0,3.5896,3.5903,3.5923,3.5955,3.5964,3.5998,3.595,3.5987,3.6011,3.5973,3.6021,3.6024,3.6037,3.6096,3.6122,3.61,3.622,3.6179,3.6186,3.6188,3.6223,3.6237,3.6249,3.6087,3.6087,3.6086,0,0,3.5983,3.599,3.6036,3.6047,3.6062,3.6058,3.6069,3.6078,3.6078,3.6127,3.6099,3.6128,3.6176,3.6188,3.62,3.6294,3.6272,3.6303,3.6358,3.6394,3.6406,3.6416,3.6451,3.6464,3.631,3.631,3.6311,0,3.6028,3.6077,3.6062,3.6102,3.6117,3.6086,3.6132,3.6143,3.6166,3.6177,3.6153,3.6214,3.622,3.6283,3.6306,3.6317,3.633,3.6302,3.6405,3.6415,3.6425,3.6458,3.6471,3.6314,3.6314,3.6313,3.6313,0,3.6133,3.6168,3.6203,3.6227,3.6247,3.6289,3.6281,3.6303,3.629,3.6288,3.6339,3.6347,3.6374,3.6388,3.6374,3.6449,3.6435,3.6409,3.6365,3.6443,3.6474,3.6486,3.632,3.6318,3.6317,3.6316,0,0,3.625,3.6268,3.6282,3.6293,3.6309,3.6336,3.6378,3.6406,3.6426,3.6443,3.6478,3.6521,3.6497,3.6511,3.6499,3.6531,3.6608,3.6501,3.6501,3.6521,3.6692,3.6713,3.6728,3.6593,3.6596,3.6597,3.6692,0,3.6338,3.6411,3.64,3.6471,3.6505,3.6477,3.6514,3.6528,3.6528,3.6556,3.6555,3.6587,3.6552,3.6561,3.6591,3.6592,3.6642,3.6585,3.6626,3.6628,3.6625,3.6744,3.6765,3.6854,3.6704,3.6706,3.6707,0,3.6449,3.6472,3.6547,3.656,3.6574,3.6607,3.6634,3.6661,3.6677,3.6674,3.6692,3.6675,3.6718,3.6674,3.6734,3.6695,3.6712,3.6715,3.6718,3.6722,3.6673,3.6751,3.6881,3.6895,3.6726,3.6724,3.6723,0,3.6529,3.6579,3.6631,3.6642,3.6658,3.6683,3.669,3.6704,3.6723,3.6745,3.6758,3.6785,3.68,3.6821,3.6813,3.6781,3.6875,3.683,3.6875,3.6875,3.6896,3.6895,3.7031,3.6905,3.6905,3.6905,3.6905,0,3.6627,3.6675,3.6668,3.6699,3.6752,3.674,3.6792,3.6796,3.681,3.6842,3.6819,3.685,3.6837,3.6868,3.6861,3.6913,3.6919,3.6919,3.6917,3.6922,3.6922,3.6932,3.6926,3.6909,3.6908,3.6907,3.6906,0,3.6725,3.6722,3.6778,3.679,3.6794,3.6832,3.6843,3.6873,3.6872,3.6914,3.6924,3.6922,3.6958,3.6952,3.6989,3.6985,3.705,3.704,3.7045,3.7043,3.7089,3.7086,3.7238,3.7258,3.7118,3.712,3.7121,0,3.6789,3.6825,3.6842,3.6863,3.6873,3.6907,3.6926,3.6916,3.6937,3.696,3.6988,3.7022,3.7048,3.7105,3.7108,3.7138,3.7128,3.718,3.7132,3.7137,3.7131,3.7129,3.7133,3.7189,3.7191,3.7192,3.7193,0,3.6902,3.69,3.6929,3.6959,3.6984,3.7006,3.7027,3.7045,3.7037,3.7062,3.7099,3.7119,3.716,3.7194,3.7222,3.723,3.7211,3.7208,3.722,3.7226,3.7228,3.7229,3.7072,3.7204,3.7203,3.7202,3.7202,3.7201,3.6986,3.7017,3.7035,3.707,3.7084,3.7105,3.7135,3.7139,3.717,3.7203,3.7195,3.7237,3.7254,3.729,3.7302,3.7335,3.7315,3.7333,3.7337,3.7342,3.7349,3.7223,3.7339,3.7339,3.7339,3.7338,3.7338,0,3.7099,3.711,3.7142,3.7172,3.72,3.7181,3.7203,3.7227,3.7265,3.7283,3.731,3.7353,3.7387,3.7393,3.7425,3.745,3.7443,3.7459,3.7458,3.746,3.7363,3.735,3.7465,3.7465,3.7465,3.7465,3.7465,3.7465,3.7161,3.7215,3.7215,3.7276,3.7287,3.7329,3.7343,3.7362,3.7377,3.7427,3.7455,3.746,3.7474,3.7507,3.7538,3.7539,3.7552,3.7573,3.757,3.7479,3.7467,3.7455,3.7442,3.7575,3.7575,3.7665,3.7666,3.7667]}]]